Location: Anaheim
(33.8350°N, 117.9140°W)
Time: 07:04:47
(UTC-07:00)

Amateur Radio Satellites - All Passes

Search period start: 02 September 2014 06:34
Search period end: 03 September 2014 06:34
Location: Anaheim, 33.8350°N, 117.9140°W

Satellite Date Start Highest point End Downlink Frequencies (MHz)
Time Altitude Azimuth
Hamsat 02 Sep 06:38:13 06:42:33 69° 101° (E) 06:46:48 145.90 MHz
JAS-2 02 Sep 07:02:17 07:07:39 82° 284° (WNW) 07:13:35 435.800 - 435.900 CW/SSB, 435.910 FM
SO-67 02 Sep 07:15:02 07:17:34 19° 95° (E) 07:20:06 435.3500 MHz FM
Saudisat 1A 02 Sep 07:27:11 07:31:37 87° 242° (WSW) 07:36:00 436.775 MHz
STRAND 1 02 Sep 08:02:53 08:06:32 20° 265° (W) 08:10:12 ?
KITSAT 1 02 Sep 08:07:39 08:15:31 53° 58° (ENE) 08:23:19 435.175 FM
ISS 02 Sep 08:17:25 08:19:54 20° 129° (SE) 08:22:23 145.800 FM
RS-15 02 Sep 08:41:09 08:51:39 47° 308° (NW) 09:02:03 29.354 - 29.394 USB, Beacon 29.352 USB
SO-67 02 Sep 08:48:07 08:50:27 17° 289° (WNW) 08:52:47 435.3500 MHz FM
HO-68 02 Sep 08:55:54 09:01:42 26° 96° (E) 09:07:29 435.675 MHz FM
ISS 02 Sep 09:53:29 09:56:28 30° 323° (NW) 09:59:28 145.800 FM
PANSAT 02 Sep 10:01:02 10:03:53 20° 163° (SSE) 10:06:43 not established
KITSAT 1 02 Sep 10:03:47 10:10:27 30° 254° (WSW) 10:17:07 435.175 FM
UKube-1 02 Sep 10:13:10 10:17:31 69° 102° (ESE) 10:21:49 145.840 MHz, 145.915 MHz
Oscar 11 02 Sep 10:16:22 10:20:35 47° 99° (E) 10:24:47 145.825 FM, Beacon 2401.500 USB
HO-68 02 Sep 10:42:44 10:49:33 50° 291° (WNW) 10:56:23 435.675 MHz FM
FUNcube-1 02 Sep 10:49:48 10:54:11 44° 99° (E) 10:58:36 145.950 - 145.970 MHz USB
RS-15 02 Sep 11:02:53 11:07:49 14° 337° (NNW) 11:12:45 29.354 - 29.394 USB, Beacon 29.352 USB
MaSat-1 02 Sep 11:28:47 11:31:55 17° 101° (E) 11:35:10 437.345 MHz
PANSAT 02 Sep 11:40:06 11:43:39 35° 175° (S) 11:47:12 not established
Oscar 11 02 Sep 11:54:26 11:56:19 13° 293° (WNW) 11:58:11 145.825 FM, Beacon 2401.500 USB
SO-50 02 Sep 12:12:55 12:17:42 64° 60° (ENE) 12:22:31 436.795 FM
FUNcube-1 02 Sep 12:27:35 12:30:11 15° 292° (WNW) 12:32:47 145.950 - 145.970 MHz USB
Oscar 19 02 Sep 12:37:03 12:40:32 19° 66° (ENE) 12:44:02 437.125 CW, 437.150 USB
MaSat-1 02 Sep 13:03:47 13:08:26 46° 297° (WNW) 13:13:23 437.345 MHz
JAS-1B 02 Sep 13:05:34 13:13:24 29° 65° (ENE) 13:20:33 435.800 - 435.900 CW/SSB
Oscar 16 02 Sep 13:10:52 13:15:42 42° 72° (ENE) 13:20:33 437.025 USB, Beacon 2401.1428
ITAMSAT 1 02 Sep 13:16:07 13:19:41 19° 66° (ENE) 13:23:15 435.822 SSB
PANSAT 02 Sep 13:20:01 13:23:30 32° 188° (S) 13:26:59 not established
RS-15 02 Sep 13:23:57 13:27:38 12° 17° (NNE) 13:31:20 29.354 - 29.394 USB, Beacon 29.352 USB
Uribyol 2 02 Sep 13:24:39 13:28:46 25° 68° (ENE) 13:32:53 436.500 FM
TMSAT-1 02 Sep 13:43:54 13:44:49 10° 62° (ENE) 13:45:44 436.925 FM
AO-27 02 Sep 13:44:36 13:49:20 38° 71° (ENE) 13:54:04 436.795 MHz FM
SO-50 02 Sep 13:55:58 13:57:43 12° 253° (WSW) 13:59:28 436.795 FM
UOSAT-12 02 Sep 13:56:10 14:00:48 54° 58° (ENE) 14:05:21 437.025 FM, 437.400 FM
Oscar 19 02 Sep 14:14:34 14:19:29 45° 261° (W) 14:24:26 437.125 CW, 437.150 USB
AO-Echo 02 Sep 14:17:48 14:22:51 89° 257° (WSW) 14:27:46 ?
Gurwin Techsat 1B 02 Sep 14:29:29 14:34:29 45° 72° (ENE) 14:39:31 435.225 FM
Oscar 16 02 Sep 14:51:38 14:55:10 19° 266° (W) 14:58:44 437.025 USB, Beacon 2401.1428
JAS-1B 02 Sep 14:53:33 15:03:18 65° 258° (WSW) 15:12:10 435.800 - 435.900 CW/SSB
ITAMSAT 1 02 Sep 14:53:55 14:58:49 43° 261° (W) 15:03:43 435.822 SSB
PANSAT 02 Sep 15:00:48 15:03:13 16° 200° (SSW) 15:05:38 not established
Uribyol 2 02 Sep 15:03:28 15:08:02 32° 262° (W) 15:12:39 436.500 FM
Uosat F 02 Sep 15:13:36 15:16:16 15° 65° (ENE) 15:18:56 435.120 FM
TMSAT-1 02 Sep 15:18:41 15:23:58 82° 257° (WSW) 15:29:17 436.925 FM
AO-27 02 Sep 15:25:03 15:28:54 21° 265° (W) 15:32:46 436.795 MHz FM
AO-7 02 Sep 15:25:53 15:33:22 39° 64° (ENE) 15:40:50 29.400 - 29.500 MHz
Sapphire 02 Sep 15:27:15 15:31:47 28° 107° (ESE) 15:36:22 437.095 MHz 1200 baud AX-25 AFSK
RS-15 02 Sep 15:34:27 15:44:35 38° 49° (NE) 15:55:00 29.354 - 29.394 USB, Beacon 29.352 USB
UOSAT-12 02 Sep 15:38:16 15:40:25 13° 253° (WSW) 15:42:33 437.025 FM, 437.400 FM
PCSat 02 Sep 15:55:29 16:00:46 59° 112° (ESE) 16:06:05 145.825 MHz
Gurwin Techsat 1B 02 Sep 16:11:02 16:14:36 18° 266° (W) 16:18:12 435.225 FM
ISS 02 Sep 16:25:00 16:28:14 47° 40° (NE) 16:31:27 145.800 FM
OPAL 02 Sep 16:48:11 16:52:50 32° 99° (E) 16:57:26 ?
Uosat F 02 Sep 16:49:39 16:54:33 55° 259° (W) 16:59:28 435.120 FM
JAS-1B 02 Sep 16:53:52 16:54:40 10° 271° (W) 16:55:28 435.800 - 435.900 CW/SSB
Sapphire 02 Sep 17:10:15 17:15:04 32° 303° (WNW) 17:19:54 437.095 MHz 1200 baud AX-25 AFSK
JAS-2 02 Sep 17:11:37 17:16:31 26° 70° (ENE) 17:21:01 435.800 - 435.900 CW/SSB, 435.910 FM
AO-7 02 Sep 17:18:13 17:25:57 42° 260° (W) 17:33:44 29.400 - 29.500 MHz
Hamsat 02 Sep 17:27:56 17:31:41 29° 72° (ENE) 17:35:27 145.90 MHz
PCSat 02 Sep 17:41:00 17:44:33 18° 309° (NW) 17:48:08 145.825 MHz
RS-15 02 Sep 17:46:29 17:57:18 58° 249° (WSW) 18:08:37 29.354 - 29.394 USB, Beacon 29.352 USB
ISS 02 Sep 18:03:11 18:04:37 12° 234° (SW) 18:06:04 145.800 FM
OPAL 02 Sep 18:27:15 18:31:31 26° 294° (WNW) 18:35:45 ?
STRAND 1 02 Sep 18:38:01 18:41:27 18° 94° (E) 18:44:52 ?
JAS-2 02 Sep 18:55:49 19:01:27 36° 261° (W) 19:06:34 435.800 - 435.900 CW/SSB, 435.910 FM
Hamsat 02 Sep 19:04:34 19:07:37 19° 266° (W) 19:10:43 145.90 MHz
SO-67 02 Sep 19:16:06 19:19:33 78° 78° (ENE) 19:23:01 435.3500 MHz FM
HO-68 02 Sep 19:23:30 19:26:39 14° 57° (ENE) 19:29:49 435.675 MHz FM
STRAND 1 02 Sep 20:15:58 20:20:46 43° 288° (WNW) 20:25:33 ?
UKube-1 02 Sep 21:05:03 21:09:01 36° 72° (ENE) 21:12:59 145.840 MHz, 145.915 MHz
HO-68 02 Sep 21:06:09 21:13:17 84° 73° (ENE) 21:20:27 435.675 MHz FM
Oscar 11 02 Sep 21:08:11 21:11:37 23° 70° (ENE) 21:15:04 145.825 FM, Beacon 2401.500 USB
MaSat-1 02 Sep 21:26:39 21:29:09 15° 53° (NE) 21:31:28 437.345 MHz
Saudisat 1A 02 Sep 21:29:48 21:34:08 62° 116° (ESE) 21:38:30 436.775 MHz
FUNcube-1 02 Sep 21:43:28 21:46:37 21° 70° (ENE) 21:49:49 145.950 - 145.970 MHz USB
KITSAT 1 02 Sep 22:31:00 22:38:55 62° 112° (ESE) 22:46:52 435.175 FM
UKube-1 02 Sep 22:42:40 22:45:17 16° 265° (W) 22:47:54 145.840 MHz, 145.915 MHz
Oscar 11 02 Sep 22:44:09 22:47:40 24° 264° (W) 22:51:13 145.825 FM, Beacon 2401.500 USB
HO-68 02 Sep 22:58:22 23:01:38 14° 268° (W) 23:04:55 435.675 MHz FM
MaSat-1 02 Sep 23:02:30 23:06:23 37° 254° (WSW) 23:09:45 437.345 MHz
Saudisat 1A 02 Sep 23:12:04 23:14:06 13° 312° (NW) 23:16:09 436.775 MHz
FUNcube-1 02 Sep 23:19:24 23:22:51 25° 264° (W) 23:26:22 145.950 - 145.970 MHz USB
AO-40 03 Sep 00:04:24 01:50:35 31° 221° (SW) 05:45:46 Beacon 2401.320
Sapphire 03 Sep 00:20:41 00:22:37 12° 48° (NE) 00:24:33 437.095 MHz 1200 baud AX-25 AFSK
KITSAT 1 03 Sep 00:28:04 00:34:46 28° 310° (NW) 00:41:31 435.175 FM
PCSat 03 Sep 00:48:03 00:52:13 22° 54° (NE) 00:56:21 145.825 MHz
Oscar 16 03 Sep 01:27:17 01:31:07 21° 95° (E) 01:34:56 437.025 USB, Beacon 2401.1428
Uribyol 2 03 Sep 01:43:07 01:44:47 11° 92° (E) 01:46:26 436.500 FM
Sapphire 03 Sep 02:01:20 02:06:47 88° 64° (ENE) 02:12:12 437.095 MHz 1200 baud AX-25 AFSK
AO-27 03 Sep 02:02:23 02:05:57 19° 95° (E) 02:09:30 436.795 MHz FM
SO-50 03 Sep 02:24:20 02:28:37 50° 115° (ESE) 02:33:00 436.795 FM
AO-Echo 03 Sep 02:29:10 02:33:33 38° 99° (E) 02:37:58 ?
Oscar 19 03 Sep 02:29:52 02:35:05 89° 103° (ESE) 02:40:16 437.125 CW, 437.150 USB
PCSat 03 Sep 02:30:40 02:35:48 45° 250° (WSW) 02:40:55 145.825 MHz
JAS-1B 03 Sep 02:46:11 02:52:11 46° 98° (E) 02:57:38 435.800 - 435.900 CW/SSB
Gurwin Techsat 1B 03 Sep 02:50:10 02:54:28 25° 96° (E) 02:58:44 435.225 FM
Oscar 16 03 Sep 03:05:45 03:10:32 38° 289° (WNW) 03:15:18 437.025 USB, Beacon 2401.1428
ITAMSAT 1 03 Sep 03:10:24 03:15:37 88° 284° (WNW) 03:20:48 435.822 SSB
Uribyol 2 03 Sep 03:19:28 03:24:38 67° 285° (WNW) 03:29:47 436.500 FM
AO-7 03 Sep 03:34:33 03:38:04 13° 92° (E) 03:41:34 29.400 - 29.500 MHz
TMSAT-1 03 Sep 03:38:36 03:43:48 55° 100° (E) 03:48:59 436.925 FM
AO-27 03 Sep 03:40:43 03:45:35 43° 288° (WNW) 03:50:28 436.795 MHz FM
OPAL 03 Sep 03:59:21 04:03:58 37° 69° (ENE) 04:08:40 ?
UOSAT-12 03 Sep 04:03:42 04:07:58 40° 113° (ESE) 04:12:19 437.025 FM, 437.400 FM
SO-50 03 Sep 04:06:44 04:09:28 16° 311° (NW) 04:12:15 436.795 FM
AO-Echo 03 Sep 04:08:54 04:12:01 18° 292° (WNW) 04:15:10 ?
Gurwin Techsat 1B 03 Sep 04:29:41 04:34:24 33° 290° (WNW) 04:39:06 435.225 FM
JAS-1B 03 Sep 04:37:53 04:42:20 21° 298° (WNW) 04:46:30 435.800 - 435.900 CW/SSB
Uosat F 03 Sep 05:01:10 05:06:09 63° 102° (ESE) 05:11:06 435.120 FM
TMSAT-1 03 Sep 05:20:08 05:23:13 16° 295° (WNW) 05:26:17 436.925 FM
AO-7 03 Sep 05:23:25 05:31:44 86° 107° (ESE) 05:40:02 29.400 - 29.500 MHz
OPAL 03 Sep 05:39:07 05:42:54 21° 263° (W) 05:46:45 ?
UOSAT-12 03 Sep 05:44:50 05:48:15 20° 309° (NW) 05:51:43 437.025 FM, 437.400 FM
STRAND 1 03 Sep 05:50:39 05:54:04 18° 66° (ENE) 05:57:29 ?
RS-15 03 Sep 05:54:24 06:03:47 33° 105° (ESE) 06:12:55 29.354 - 29.394 USB, Beacon 29.352 USB
Saudisat 1A 03 Sep 06:01:06 06:04:08 18° 51° (NE) 06:07:09 436.775 MHz
JAS-2 03 Sep 06:07:47 06:12:36 31° 99° (E) 06:17:48 435.800 - 435.900 CW/SSB, 435.910 FM
